| time (UTC) | temp F | wind direction | speed MPH | gust MPH | rain 1hr in | rain 24hr in | rain mn in | humidity % | barometer mb |
| 20260507020508 | 55 | 256 | 0.0 | 0.0 | 0.00 | 0.75 | 0.75 | 71 | 1013.4 |
| 20260507020005 | 55 | 301 | 1.0 | 1.0 | 0.00 | 0.75 | 0.75 | 71 | 1013.3 |
| 20260507015503 | 55 | 286 | 1.0 | 2.0 | 0.00 | 0.75 | 0.75 | 72 | 1013.4 |
| 20260507014955 | 56 | 333 | 1.0 | 1.0 | 0.00 | 0.75 | 0.75 | 71 | 1013.2 |
| 20260507014451 | 56 | 345 | 3.0 | 5.0 | 0.00 | 0.75 | 0.75 | 72 | 1013.3 |
| 20260507013947 | 56 | 328 | 2.0 | 3.0 | 0.00 | 0.75 | 0.75 | 72 | 1013.2 |
| 20260507013444 | 56 | 253 | 1.0 | 2.0 | 0.00 | 0.75 | 0.75 | 72 | 1013.0 |
| 20260507012941 | 56 | 313 | 1.0 | 1.0 | 0.00 | 0.75 | 0.75 | 73 | 1013.0 |
| 20260507012438 | 56 | 346 | 3.0 | 5.0 | 0.00 | 0.75 | 0.75 | 73 | 1013.0 |
| 20260507011934 | 57 | 343 | 2.0 | 2.0 | 0.00 | 0.75 | 0.75 | 73 | 1013.0 |
| 20260507011431 | 57 | 340 | 1.0 | 2.0 | 0.00 | 0.75 | 0.75 | 73 | 1012.9 |
| 20260507010926 | 56 | 274 | 0.0 | 0.0 | 0.00 | 0.75 | 0.75 | 73 | 1012.6 |
| 20260507010421 | 55 | 321 | 3.0 | 3.0 | 0.00 | 0.75 | 0.75 | 78 | 1012.5 |
| 20260507005918 | 56 | 257 | 0.0 | 0.0 | 0.00 | 0.75 | 0.75 | 90 | 1012.6 |
| 20260507005415 | 57 | 251 | 0.0 | 0.0 | 0.00 | 0.75 | 0.75 | 89 | 1012.5 |
| 20260507004912 | 57 | 255 | 0.0 | 0.0 | 0.00 | 0.75 | 0.75 | 88 | 1012.5 |
| 20260507004409 | 56 | 243 | 0.0 | 0.0 | 0.00 | 0.75 | 0.75 | 88 | 1012.4 |
| 20260507003906 | 57 | 243 | 0.0 | 0.0 | 0.00 | 0.75 | 0.75 | 88 | 1012.4 |
| 20260507003401 | 57 | 237 | 0.0 | 0.0 | 0.00 | 0.75 | 0.75 | 89 | 1012.4 |
| 20260507002857 | 57 | 88 | 0.0 | 0.0 | 0.00 | 0.75 | 0.75 | 87 | 1012.0 |
| 20260507002353 | 57 | 286 | 0.0 | 0.0 | 0.00 | 0.75 | 0.75 | 83 | 1012.2 |
| 20260507001850 | 58 | 263 | 0.0 | 0.0 | 0.00 | 0.75 | 0.75 | 84 | 1012.2 |
| 20260507001347 | 57 | 263 | 0.0 | 0.0 | 0.00 | 0.75 | 0.75 | 83 | 1012.2 |
| 20260507000844 | 58 | 284 | 0.0 | 1.0 | 0.00 | 0.75 | 0.75 | 83 | 1011.8 |
| 20260507000339 | 58 | 282 | 0.0 | 0.0 | 0.00 | 0.75 | 0.75 | 83 | 1011.9 |
| 20260506235836 | 58 | 263 | 0.0 | 0.0 | 0.00 | 0.75 | 0.75 | 83 | 1011.9 |
| 20260506235333 | 58 | 264 | 0.0 | 0.0 | 0.00 | 0.75 | 0.75 | 82 | 1012.0 |
| 20260506234829 | 58 | 288 | 0.0 | 0.0 | 0.00 | 0.75 | 0.75 | 82 | 1011.7 |
| 20260506234326 | 57 | 265 | 0.0 | 0.0 | 0.00 | 0.75 | 0.75 | 83 | 1011.9 |
| 20260506233824 | 57 | 265 | 0.0 | 0.0 | 0.00 | 0.75 | 0.75 | 85 | 1011.9 |
| 20260506233319 | 58 | 276 | 0.0 | 0.0 | 0.00 | 0.75 | 0.75 | 88 | 1011.6 |
| 20260506232816 | 58 | 74 | 2.0 | 2.0 | 0.00 | 0.75 | 0.75 | 87 | 1011.6 |
| 20260506232312 | 59 | 318 | 0.0 | 0.0 | 0.00 | 0.75 | 0.75 | 84 | 1012.0 |
| 20260506231809 | 59 | 266 | 0.0 | 0.0 | 0.00 | 0.75 | 0.75 | 84 | 1012.3 |
| 20260506231307 | 59 | 265 | 0.0 | 0.0 | 0.00 | 0.75 | 0.75 | 83 | 1012.3 |
| 20260506230804 | 60 | 272 | 0.0 | 0.0 | 0.00 | 0.75 | 0.75 | 82 | 1012.0 |
| 20260506230300 | 60 | 265 | 0.0 | 0.0 | 0.00 | 0.75 | 0.75 | 79 | 1011.9 |
| 20260506225756 | 60 | 289 | 0.0 | 0.0 | 0.00 | 0.75 | 0.75 | 77 | 1011.9 |
| 20260506225254 | 60 | 281 | 0.0 | 0.0 | 0.00 | 0.75 | 0.75 | 76 | 1012.2 |
| 20260506224751 | 60 | 275 | 0.0 | 1.0 | 0.00 | 0.75 | 0.75 | 75 | 1012.2 |
| 20260506224248 | 60 | 294 | 0.0 | 1.0 | 0.00 | 0.75 | 0.75 | 76 | 1011.9 |
| 20260506223744 | 60 | 294 | 0.0 | 0.0 | 0.00 | 0.75 | 0.75 | 76 | 1012.0 |
| 20260506223239 | 60 | 268 | 0.0 | 0.0 | 0.00 | 0.75 | 0.75 | 75 | 1011.9 |
| 20260506222731 | 60 | 305 | 1.0 | 1.0 | 0.00 | 0.75 | 0.75 | 73 | 1011.6 |
| 20260506222227 | 60 | 250 | 0.0 | 0.0 | 0.00 | 0.75 | 0.75 | 72 | 1011.9 |
| 20260506221725 | 60 | 287 | 0.0 | 0.0 | 0.00 | 0.75 | 0.75 | 72 | 1011.7 |
| 20260506221223 | 60 | 259 | 0.0 | 0.0 | 0.00 | 0.75 | 0.75 | 71 | 1012.2 |
| 20260506220720 | 60 | 270 | 2.0 | 2.0 | 0.00 | 0.75 | 0.75 | 70 | 1012.0 |
| 20260506220214 | 60 | 266 | 0.0 | 1.0 | 0.00 | 0.75 | 0.75 | 73 | 1011.8 |
| 20260506215711 | 61 | 339 | 2.0 | 2.0 | 0.00 | 0.75 | 0.75 | 71 | 1011.7 |
| 20260506215207 | 61 | 25 | 2.0 | 3.0 | 0.00 | 0.75 | 0.75 | 72 | 1011.4 |
| 20260506214704 | 62 | 85 | 3.0 | 3.0 | 0.00 | 0.75 | 0.75 | 72 | 1011.4 |
| 20260506214201 | 62 | 359 | 1.0 | 2.0 | 0.00 | 0.75 | 0.75 | 70 | 1011.3 |
| 20260506213659 | 61 | 259 | 0.0 | 0.0 | 0.00 | 0.75 | 0.75 | 72 | 1011.3 |
| 20260506213156 | 61 | 239 | 0.0 | 1.0 | 0.00 | 0.75 | 0.75 | 72 | 1011.3 |
| 20260506212653 | 61 | 275 | 1.0 | 1.0 | 0.00 | 0.75 | 0.75 | 72 | 1011.7 |
| 20260506212148 | 61 | 316 | 1.0 | 2.0 | 0.00 | 0.75 | 0.75 | 72 | 1011.4 |
| 20260506211644 | 61 | 276 | 1.0 | 1.0 | 0.00 | 0.75 | 0.75 | 73 | 1011.4 |
| 20260506211141 | 61 | 268 | 0.0 | 0.0 | 0.00 | 0.75 | 0.75 | 72 | 1011.6 |
| 20260506210638 | 61 | 336 | 2.0 | 2.0 | 0.00 | 0.75 | 0.75 | 73 | 1011.4 |
| 20260506210135 | 61 | 282 | 1.0 | 1.0 | 0.00 | 0.75 | 0.75 | 74 | 1011.5 |
| 20260506205632 | 61 | 325 | 1.0 | 2.0 | 0.00 | 0.75 | 0.75 | 73 | 1011.5 |
| 20260506205126 | 61 | 261 | 3.0 | 3.0 | 0.00 | 0.75 | 0.75 | 72 | 1011.4 |
| 20260506204625 | 61 | 251 | 3.0 | 3.0 | 0.00 | 0.75 | 0.75 | 72 | 1011.4 |
| 20260506204121 | 61 | 295 | 3.0 | 5.0 | 0.00 | 0.75 | 0.75 | 73 | 1011.4 |
| 20260506203620 | 61 | 268 | 2.0 | 2.0 | 0.00 | 0.75 | 0.75 | 72 | 1011.3 |
| 20260506203116 | 62 | 328 | 3.0 | 3.0 | 0.00 | 0.75 | 0.75 | 72 | 1011.2 |
| 20260506202614 | 62 | 293 | 2.0 | 2.0 | 0.00 | 0.75 | 0.75 | 73 | 1011.2 |
| 20260506202110 | 62 | 249 | 1.0 | 1.0 | 0.00 | 0.75 | 0.75 | 72 | 1011.0 |
| 20260506201607 | 62 | 288 | 2.0 | 2.0 | 0.00 | 0.75 | 0.75 | 72 | 1011.2 |
| 20260506201104 | 62 | 243 | 1.0 | 1.0 | 0.00 | 0.75 | 0.75 | 74 | 1010.9 |
| 20260506200600 | 62 | 348 | 1.0 | 2.0 | 0.00 | 0.75 | 0.75 | 73 | 1010.9 |
| 20260506200057 | 62 | 347 | 2.0 | 2.0 | 0.00 | 0.75 | 0.75 | 73 | 1011.2 |
| 20260506195553 | 61 | 167 | 1.0 | 1.0 | 0.00 | 0.75 | 0.75 | 75 | 1010.9 |
| 20260506195050 | 61 | 315 | 3.0 | 3.0 | 0.00 | 0.75 | 0.75 | 75 | 1011.1 |
| 20260506194548 | 61 | 311 | 2.0 | 3.0 | 0.00 | 0.75 | 0.75 | 74 | 1010.9 |
| 20260506194043 | 62 | 52 | 2.0 | 2.0 | 0.00 | 0.75 | 0.75 | 74 | 1010.9 |
| 20260506193541 | 62 | 281 | 1.0 | 1.0 | 0.00 | 0.75 | 0.75 | 74 | 1011.1 |
| 20260506193039 | 62 | 261 | 0.0 | 1.0 | 0.00 | 0.75 | 0.75 | 73 | 1011.2 |
| 20260506192535 | 62 | 286 | 2.0 | 2.0 | 0.00 | 0.75 | 0.75 | 76 | 1011.0 |
| 20260506192031 | 61 | 273 | 2.0 | 2.0 | 0.00 | 0.75 | 0.75 | 77 | 1011.2 |
| 20260506191528 | 60 | 31 | 0.0 | 1.0 | 0.00 | 0.75 | 0.75 | 78 | 1011.2 |
| 20260506191024 | 60 | 257 | 0.0 | 0.0 | 0.00 | 0.75 | 0.75 | 79 | 1011.1 |
| 20260506190521 | 61 | 16 | 2.0 | 2.0 | 0.00 | 0.75 | 0.75 | 78 | 1011.1 |
| 20260506190019 | 61 | 327 | 2.0 | 2.0 | 0.00 | 0.75 | 0.75 | 78 | 1011.3 |
| 20260506185515 | 60 | 257 | 1.0 | 1.0 | 0.00 | 0.75 | 0.75 | 79 | 1011.1 |
| 20260506185012 | 60 | 338 | 1.0 | 1.0 | 0.00 | 0.75 | 0.75 | 79 | 1011.1 |
| 20260506184509 | 59 | 312 | 2.0 | 2.0 | 0.00 | 0.75 | 0.75 | 80 | 1011.1 |
| 20260506184006 | 60 | 119 | 2.0 | 2.0 | 0.00 | 0.75 | 0.75 | 81 | 1011.2 |
| 20260506183503 | 59 | 343 | 1.0 | 1.0 | 0.00 | 0.75 | 0.75 | 82 | 1011.2 |
| 20260506182959 | 60 | 318 | 1.0 | 1.0 | 0.00 | 0.75 | 0.75 | 80 | 1011.3 |
| 20260506182456 | 59 | 261 | 0.0 | 0.0 | 0.00 | 0.75 | 0.75 | 81 | 1011.2 |
| 20260506181953 | 59 | 263 | 2.0 | 2.0 | 0.00 | 0.75 | 0.75 | 80 | 1010.9 |
| 20260506181451 | 59 | 18 | 2.0 | 2.0 | 0.00 | 0.75 | 0.75 | 82 | 1011.1 |
| 20260506180948 | 59 | 261 | 0.0 | 0.0 | 0.00 | 0.75 | 0.75 | 82 | 1011.2 |
| 20260506180444 | 59 | 3 | 3.0 | 3.0 | 0.00 | 0.75 | 0.75 | 82 | 1011.2 |
| 20260506175941 | 58 | 304 | 3.0 | 3.0 | 0.00 | 0.75 | 0.75 | 82 | 1011.2 |
| 20260506175438 | 59 | 275 | 3.0 | 5.0 | 0.00 | 0.75 | 0.75 | 83 | 1011.4 |
| 20260506174934 | 59 | 238 | 0.0 | 1.0 | 0.00 | 0.75 | 0.75 | 83 | 1011.4 |
| 20260506174432 | 58 | 314 | 2.0 | 2.0 | 0.00 | 0.75 | 0.75 | 82 | 1011.4 |
| 20260506173928 | 59 | 266 | 3.0 | 5.0 | 0.00 | 0.75 | 0.75 | 83 | 1011.6 |
| 20260506173426 | 59 | 288 | 2.0 | 2.0 | 0.00 | 0.75 | 0.75 | 84 | 1011.6 |
| 20260506172923 | 59 | 297 | 2.0 | 2.0 | 0.00 | 0.75 | 0.75 | 84 | 1011.6 |
| 20260506172419 | 59 | 243 | 0.0 | 1.0 | 0.00 | 0.75 | 0.75 | 83 | 1011.7 |
| 20260506171916 | 59 | 262 | 3.0 | 5.0 | 0.00 | 0.75 | 0.75 | 82 | 1011.5 |
| 20260506171414 | 56 | 283 | 0.0 | 1.0 | 0.00 | 0.75 | 0.75 | 86 | 1011.6 |
| 20260506170912 | 56 | 278 | 2.0 | 2.0 | 0.00 | 0.75 | 0.75 | 89 | 1011.6 |
| 20260506170407 | 56 | 51 | 3.0 | 3.0 | 0.00 | 0.75 | 0.75 | 90 | 1011.6 |
| 20260506165901 | 55 | 24 | 3.0 | 5.0 | 0.00 | 0.75 | 0.75 | 90 | 1011.3 |
| 20260506165359 | 55 | 340 | 1.0 | 1.0 | 0.00 | 0.75 | 0.75 | 92 | 1011.6 |
| 20260506164855 | 54 | 259 | 3.0 | 5.0 | 0.00 | 0.75 | 0.75 | 94 | 1011.4 |
| 20260506164351 | 54 | 317 | 2.0 | 2.0 | 0.00 | 0.75 | 0.75 | 97 | 1011.4 |
| 20260506163849 | 53 | 318 | 1.0 | 2.0 | 0.00 | 0.75 | 0.75 | 99 | 1011.6 |
| 20260506163343 | 53 | 303 | 1.0 | 1.0 | 0.00 | 0.75 | 0.75 | 99 | 1011.7 |
| 20260506162839 | 52 | 345 | 2.0 | 2.0 | 0.00 | 0.75 | 0.75 | 99 | 1011.5 |
| 20260506162337 | 53 | 305 | 1.0 | 2.0 | 0.00 | 0.75 | 0.75 | 99 | 1011.7 |
| 20260506161834 | 52 | 255 | 1.0 | 1.0 | 0.00 | 0.75 | 0.75 | 99 | 1011.6 |
| 20260506161331 | 51 | 256 | 1.0 | 2.0 | 0.00 | 0.75 | 0.75 | 99 | 1011.9 |
| 20260506160829 | 51 | 282 | 1.0 | 1.0 | 0.00 | 0.75 | 0.75 | 99 | 1011.7 |
| 20260506160325 | 51 | 229 | 2.0 | 2.0 | 0.00 | 0.75 | 0.75 | 99 | 1011.7 |
| 20260506155824 | 51 | 280 | 2.0 | 2.0 | 0.00 | 0.75 | 0.75 | 99 | 1011.5 |
| 20260506155321 | 52 | 282 | 1.0 | 1.0 | 0.00 | 0.75 | 0.75 | 99 | 1011.5 |
| 20260506153433 | 50 | 252 | 3.0 | 3.0 | 0.00 | 0.75 | 0.75 | 99 | 1010.9 |
| 20260506152930 | 51 | 279 | 0.0 | 1.0 | 0.00 | 0.75 | 0.75 | 99 | 1010.9 |
| 20260506152427 | 50 | 337 | 1.0 | 2.0 | 0.00 | 0.75 | 0.75 | 99 | 1010.9 |
| 20260506151926 | 50 | 297 | 1.0 | 2.0 | 0.00 | 0.75 | 0.75 | 99 | 1010.9 |
| 20260506151422 | 50 | 281 | 1.0 | 2.0 | 0.00 | 0.75 | 0.75 | 99 | 1010.8 |
| 20260506150920 | 50 | 285 | 1.0 | 1.0 | 0.00 | 0.75 | 0.75 | 99 | 1010.4 |
| 20260506150415 | 50 | 306 | 1.0 | 1.0 | 0.00 | 0.75 | 0.75 | 99 | 1010.6 |
| 20260506145913 | 50 | 285 | 1.0 | 2.0 | 0.00 | 0.75 | 0.75 | 99 | 1010.8 |
| 20260506145409 | 50 | 288 | 0.0 | 0.0 | 0.00 | 0.75 | 0.75 | 99 | 1010.4 |
| 20260506144907 | 50 | 259 | 0.0 | 0.0 | 0.00 | 0.75 | 0.75 | 99 | 1010.3 |
| 20260506144402 | 51 | 282 | 2.0 | 2.0 | 0.00 | 0.75 | 0.75 | 99 | 1010.1 |
| 20260506143901 | 50 | 358 | 1.0 | 2.0 | 0.00 | 0.75 | 0.75 | 99 | 1010.0 |
| 20260506143358 | 50 | 257 | 0.0 | 0.0 | 0.00 | 0.75 | 0.75 | 99 | 1010.0 |
| 20260506142856 | 50 | 250 | 1.0 | 2.0 | 0.07 | 0.75 | 0.75 | 99 | 1010.0 |
| 20260506142354 | 50 | 263 | 0.0 | 0.0 | 0.07 | 0.75 | 0.75 | 99 | 1010.0 |
| 20260506141852 | 50 | 292 | 0.0 | 1.0 | 0.00 | 0.74 | 0.74 | 99 | 1010.1 |
| 20260506141350 | 50 | 260 | 0.0 | 0.0 | 0.00 | 0.74 | 0.74 | 99 | 1010.1 |
| 20260506140848 | 50 | 256 | 3.0 | 5.0 | 0.00 | 0.74 | 0.74 | 99 | 1010.1 |
| 20260506140344 | 50 | 261 | 0.0 | 1.0 | 0.00 | 0.74 | 0.74 | 99 | 1010.1 |
| 20260506135841 | 50 | 330 | 3.0 | 3.0 | 0.00 | 0.74 | 0.74 | 99 | 1009.5 |
| 20260506135338 | 50 | 222 | 0.0 | 1.0 | 0.00 | 0.74 | 0.74 | 99 | 1009.5 |
| 20260506134834 | 50 | 323 | 1.0 | 2.0 | 0.00 | 0.74 | 0.74 | 99 | 1009.2 |
| 20260506134331 | 50 | 289 | 0.0 | 1.0 | 0.00 | 0.74 | 0.74 | 99 | 1008.9 |
| 20260506133828 | 50 | 294 | 3.0 | 5.0 | 0.05 | 0.74 | 0.74 | 99 | 1008.9 |
| 20260506133324 | 50 | 0 | 6.0 | 9.0 | 0.05 | 0.74 | 0.74 | 99 | 1008.7 |
| 20260506132821 | 50 | 334 | 3.0 | 5.0 | 0.00 | 0.73 | 0.73 | 99 | 1008.4 |
| 20260506132318 | 51 | 344 | 5.0 | 6.0 | 0.00 | 0.73 | 0.73 | 99 | 1008.4 |
| 20260506131816 | 52 | 348 | 8.0 | 10.0 | 0.00 | 0.73 | 0.73 | 99 | 1008.5 |
| 20260506131312 | 53 | 340 | 4.0 | 5.0 | 0.07 | 0.73 | 0.73 | 99 | 1008.4 |
| 20260506130809 | 57 | 336 | 7.0 | 8.0 | 0.07 | 0.73 | 0.73 | 99 | 1007.8 |
| 20260506130301 | 59 | 283 | 4.0 | 5.0 | 0.00 | 0.72 | 0.72 | 99 | 1007.6 |
| 20260506125759 | 59 | 256 | 2.0 | 3.0 | 0.00 | 0.72 | 0.72 | 99 | 1007.5 |
| 20260506125256 | 59 | 230 | 3.0 | 3.0 | 0.00 | 0.72 | 0.72 | 99 | 1007.4 |
| 20260506124755 | 59 | 255 | 0.0 | 1.0 | 0.00 | 0.72 | 0.72 | 99 | 1007.7 |
| 20260506124252 | 58 | 237 | 1.0 | 2.0 | 0.00 | 0.72 | 0.72 | 99 | 1007.5 |
| 20260506123749 | 58 | 215 | 5.0 | 7.0 | 0.00 | 0.72 | 0.72 | 99 | 1007.2 |
| 20260506123248 | 58 | 251 | 2.0 | 2.0 | 0.00 | 0.72 | 0.72 | 99 | 1007.3 |
| 20260506122744 | 58 | 226 | 3.0 | 5.0 | 0.00 | 0.72 | 0.72 | 99 | 1007.3 |
| 20260506122241 | 58 | 261 | 3.0 | 3.0 | 0.00 | 0.72 | 0.72 | 99 | 1007.1 |
| 20260506121739 | 58 | 247 | 0.0 | 1.0 | 0.00 | 0.72 | 0.72 | 99 | 1007.1 |
| 20260506121236 | 58 | 243 | 0.0 | 1.0 | 0.00 | 0.72 | 0.72 | 99 | 1007.2 |
| 20260506120733 | 58 | 233 | 3.0 | 3.0 | 0.00 | 0.72 | 0.72 | 99 | 1007.2 |
| 20260506120231 | 58 | 250 | 0.0 | 1.0 | 0.00 | 0.72 | 0.72 | 99 | 1006.9 |
| 20260506115728 | 58 | 216 | 0.0 | 1.0 | 0.00 | 0.72 | 0.72 | 99 | 1006.7 |
| 20260506115226 | 58 | 224 | 0.0 | 0.0 | 0.00 | 0.72 | 0.72 | 99 | 1006.8 |
| 20260506114724 | 58 | 213 | 0.0 | 0.0 | 0.00 | 0.72 | 0.72 | 99 | 1007.1 |
| 20260506114221 | 58 | 220 | 0.0 | 0.0 | 0.00 | 0.72 | 0.72 | 99 | 1007.1 |
| 20260506113720 | 58 | 246 | 1.0 | 1.0 | 0.00 | 0.72 | 0.72 | 99 | 1006.8 |
| 20260506113217 | 58 | 208 | 1.0 | 2.0 | 0.00 | 0.72 | 0.72 | 99 | 1006.8 |
| 20260506112713 | 58 | 244 | 1.0 | 2.0 | 0.00 | 0.72 | 0.72 | 99 | 1006.9 |
| 20260506112211 | 58 | 214 | 0.0 | 0.0 | 0.00 | 0.72 | 0.72 | 99 | 1006.9 |
| 20260506111708 | 58 | 211 | 0.0 | 0.0 | 0.00 | 0.72 | 0.72 | 99 | 1006.5 |
| 20260506111206 | 58 | 219 | 2.0 | 5.0 | 0.00 | 0.72 | 0.72 | 99 | 1006.9 |
| 20260506110703 | 58 | 223 | 1.0 | 3.0 | 0.00 | 0.72 | 0.72 | 99 | 1006.7 |
| 20260506110201 | 58 | 234 | 0.0 | 0.0 | 0.00 | 0.72 | 0.72 | 99 | 1006.7 |
| 20260506105657 | 57 | 232 | 0.0 | 0.0 | 0.00 | 0.72 | 0.72 | 99 | 1006.7 |
| 20260506105154 | 57 | 248 | 2.0 | 2.0 | 0.00 | 0.72 | 0.72 | 99 | 1006.7 |
| 20260506104652 | 57 | 214 | 3.0 | 5.0 | 0.00 | 0.72 | 0.72 | 99 | 1006.3 |
| 20260506104149 | 57 | 230 | 0.0 | 0.0 | 0.05 | 0.72 | 0.72 | 99 | 1006.5 |
| 20260506103646 | 57 | 228 | 0.0 | 1.0 | 0.05 | 0.72 | 0.72 | 99 | 1006.4 |
| 20260506103143 | 57 | 240 | 0.0 | 1.0 | 0.07 | 0.71 | 0.71 | 99 | 1006.6 |
| 20260506102642 | 57 | 197 | 2.0 | 3.0 | 0.07 | 0.71 | 0.71 | 99 | 1006.3 |
| 20260506102138 | 57 | 215 | 1.0 | 2.0 | 0.00 | 0.70 | 0.70 | 99 | 1006.5 |
| 20260506101635 | 57 | 210 | 1.0 | 3.0 | 0.00 | 0.70 | 0.70 | 99 | 1006.5 |
| 20260506101132 | 57 | 206 | 4.0 | 6.0 | 0.05 | 0.70 | 0.70 | 99 | 1006.3 |
| 20260506100631 | 57 | 244 | 0.0 | 1.0 | 0.12 | 0.70 | 0.70 | 99 | 1006.1 |
| 20260506100128 | 57 | 188 | 2.0 | 3.0 | 0.12 | 0.69 | 0.69 | 99 | 1006.4 |
| 20260506095627 | 57 | 180 | 2.0 | 3.0 | 0.05 | 0.68 | 0.68 | 99 | 1006.5 |
| 20260506095123 | 57 | 229 | 0.0 | 1.0 | 0.07 | 0.67 | 0.67 | 99 | 1006.4 |
| 20260506094621 | 57 | 222 | 0.0 | 0.0 | 0.07 | 0.67 | 0.67 | 99 | 1006.7 |
| 20260506094118 | 57 | 205 | 1.0 | 2.0 | 0.07 | 0.66 | 0.66 | 99 | 1006.8 |
| 20260506093617 | 57 | 200 | 1.0 | 1.0 | 0.12 | 0.66 | 0.66 | 99 | 1006.6 |
| 20260506093113 | 57 | 208 | 1.0 | 1.0 | 0.19 | 0.66 | 0.66 | 99 | 1006.7 |
| 20260506092611 | 57 | 224 | 0.0 | 0.0 | 0.12 | 0.64 | 0.64 | 99 | 1006.8 |
| 20260506092107 | 57 | 238 | 0.0 | 0.0 | 0.12 | 0.63 | 0.63 | 99 | 1006.9 |
| 20260506091606 | 57 | 215 | 0.0 | 0.0 | 0.07 | 0.62 | 0.62 | 99 | 1006.8 |
| 20260506091103 | 57 | 227 | 0.0 | 0.0 | 0.00 | 0.61 | 0.61 | 99 | 1006.9 |
| 20260506090601 | 57 | 225 | 0.0 | 0.0 | 0.05 | 0.61 | 0.61 | 99 | 1006.8 |
| 20260506090057 | 57 | 227 | 0.0 | 0.0 | 0.17 | 0.61 | 0.61 | 99 | 1006.8 |
| 20260506085554 | 57 | 225 | 0.0 | 0.0 | 0.24 | 0.60 | 0.60 | 99 | 1006.9 |
| 20260506085050 | 57 | 227 | 0.0 | 0.0 | 0.24 | 0.58 | 0.58 | 99 | 1006.8 |
| 20260506084547 | 57 | 226 | 0.0 | 0.0 | 0.19 | 0.56 | 0.56 | 99 | 1007.1 |
| 20260506084044 | 57 | 224 | 0.0 | 0.0 | 0.14 | 0.54 | 0.54 | 99 | 1006.9 |
| 20260506083541 | 57 | 260 | 0.0 | 0.0 | 0.19 | 0.53 | 0.53 | 99 | 1006.9 |
| 20260506083038 | 57 | 245 | 0.0 | 0.0 | 0.24 | 0.52 | 0.52 | 99 | 1006.8 |
| 20260506082535 | 57 | 225 | 0.0 | 0.0 | 0.24 | 0.50 | 0.50 | 99 | 1006.9 |
| 20260506082031 | 57 | 223 | 0.0 | 0.0 | 0.28 | 0.48 | 0.48 | 99 | 1006.7 |
| 20260506081529 | 58 | 225 | 1.0 | 1.0 | 0.35 | 0.46 | 0.46 | 99 | 1006.8 |
| 20260506081026 | 58 | 215 | 0.0 | 1.0 | 0.35 | 0.44 | 0.44 | 99 | 1006.6 |
| 20260506080524 | 58 | 230 | 1.0 | 1.0 | 0.50 | 0.41 | 0.41 | 99 | 1006.6 |
| 20260506073507 | 58 | 253 | 3.0 | 3.0 | 0.50 | 0.21 | 0.21 | 99 | 1007.3 |
| 20260506073004 | 59 | 226 | 7.0 | 8.0 | 0.59 | 0.18 | 0.18 | 98 | 1007.1 |
| 20260506072501 | 59 | 221 | 3.0 | 3.0 | 0.54 | 0.14 | 0.14 | 96 | 1007.5 |
| 20260506071959 | 60 | 260 | 7.0 | 10.0 | 0.24 | 0.08 | 0.08 | 94 | 1007.6 |
| 20260506071457 | 60 | 227 | 6.0 | 8.0 | 0.05 | 0.05 | 0.05 | 93 | 1007.3 |
| 20260506070954 | 60 | 238 | 6.0 | 7.0 | 0.00 | 0.04 | 0.04 | 93 | 1006.7 |
| 20260506070451 | 60 | 220 | 1.0 | 2.0 | 0.00 | 0.04 | 0.04 | 93 | 1006.7 |
| 20260506062428 | 59 | 242 | 1.0 | 2.0 | 0.00 | 0.02 | 0.02 | 99 | 1006.6 |
| 20260506061924 | 59 | 231 | 0.0 | 0.0 | 0.00 | 0.02 | 0.02 | 99 | 1006.4 |
| 20260506061420 | 58 | 220 | 0.0 | 0.0 | 0.00 | 0.02 | 0.02 | 99 | 1006.4 |
| 20260506060919 | 58 | 225 | 0.0 | 0.0 | 0.00 | 0.02 | 0.02 | 99 | 1006.4 |
| 20260506060416 | 58 | 251 | 0.0 | 0.0 | 0.00 | 0.02 | 0.02 | 99 | 1006.7 |
| 20260506051348 | 59 | 254 | 0.0 | 0.0 | 0.00 | 0.02 | 0.02 | 96 | 1007.6 |
| 20260506050846 | 59 | 237 | 0.0 | 0.0 | 0.00 | 0.02 | 0.02 | 96 | 1007.8 |
| 20260506050343 | 59 | 59 | 2.0 | 2.0 | 0.05 | 0.02 | 0.02 | 98 | 1007.7 |
| 20260506044833 | 59 | 245 | 0.0 | 0.0 | 0.00 | 0.01 | 0.01 | 97 | 1008.3 |
| 20260506044331 | 59 | 6 | 1.0 | 1.0 | 0.07 | 0.01 | 0.01 | 97 | 1008.1 |
| 20260506043828 | 60 | 289 | 0.0 | 0.0 | 0.07 | 0.01 | 0.01 | 97 | 1007.9 |
| 20260506043326 | 60 | 320 | 0.0 | 0.0 | 0.00 | 0.00 | 0.00 | 97 | 1008.0 |
| 20260506042824 | 60 | 55 | 2.0 | 2.0 | 0.00 | 0.00 | 0.00 | 96 | 1007.8 |
| 20260506042323 | 60 | 303 | 0.0 | 0.0 | 0.00 | 0.00 | 0.00 | 96 | 1007.9 |
| 20260506041821 | 60 | 262 | 0.0 | 0.0 | 0.00 | 0.00 | 0.00 | 96 | 1008.0 |
| 20260506041317 | 60 | 263 | 0.0 | 0.0 | 0.00 | 0.00 | 0.00 | 96 | 1007.9 |
| 20260506040815 | 61 | 274 | 0.0 | 0.0 | 0.00 | 0.00 | 0.00 | 96 | 1007.9 |
| 20260506040312 | 61 | 283 | 0.0 | 0.0 | 0.00 | 0.00 | 0.00 | 95 | 1007.8 |
| 20260506035808 | 61 | 297 | 0.0 | 0.0 | 0.00 | 0.03 | 0.03 | 94 | 1007.5 |
| 20260506035306 | 61 | 242 | 0.0 | 0.0 | 0.00 | 0.03 | 0.03 | 93 | 1007.7 |
| 20260506034802 | 62 | 241 | 0.0 | 0.0 | 0.00 | 0.03 | 0.03 | 92 | 1007.7 |
| 20260506034300 | 62 | 246 | 0.0 | 0.0 | 0.00 | 0.03 | 0.03 | 91 | 1007.8 |
| 20260506033756 | 62 | 236 | 0.0 | 0.0 | 0.00 | 0.03 | 0.03 | 88 | 1007.6 |
| 20260506033253 | 62 | 234 | 0.0 | 0.0 | 0.00 | 0.03 | 0.03 | 85 | 1007.7 |
| 20260506032750 | 62 | 235 | 0.0 | 0.0 | 0.00 | 0.03 | 0.03 | 87 | 1007.9 |
| 20260506032247 | 62 | 236 | 0.0 | 0.0 | 0.00 | 0.03 | 0.03 | 88 | 1007.6 |
| 20260506031743 | 61 | 236 | 0.0 | 0.0 | 0.00 | 0.03 | 0.03 | 90 | 1007.8 |
| 20260506031241 | 61 | 232 | 0.0 | 0.0 | 0.00 | 0.03 | 0.03 | 91 | 1007.8 |
| 20260506030739 | 61 | 263 | 0.0 | 0.0 | 0.00 | 0.03 | 0.03 | 92 | 1008.1 |
| 20260506030237 | 61 | 258 | 0.0 | 0.0 | 0.00 | 0.03 | 0.03 | 92 | 1008.3 |
| 20260506025733 | 62 | 264 | 0.0 | 0.0 | 0.00 | 0.03 | 0.03 | 92 | 1008.4 |
| 20260506025229 | 62 | 266 | 0.0 | 0.0 | 0.05 | 0.03 | 0.03 | 90 | 1007.9 |
| 20260506024721 | 62 | 291 | 0.0 | 0.0 | 0.05 | 0.03 | 0.03 | 89 | 1008.2 |
| 20260506024217 | 64 | 291 | 1.0 | 2.0 | 0.00 | 0.02 | 0.02 | 87 | 1008.3 |
| 20260506023713 | 65 | 263 | 0.0 | 0.0 | 0.00 | 0.02 | 0.02 | 81 | 1008.0 |
| 20260506023211 | 65 | 241 | 0.0 | 0.0 | 0.00 | 0.02 | 0.02 | 77 | 1008.2 |
| 20260506022707 | 65 | 229 | 0.0 | 0.0 | 0.00 | 0.02 | 0.02 | 75 | 1008.2 |
| 20260506022205 | 66 | 249 | 0.0 | 0.0 | 0.00 | 0.02 | 0.02 | 74 | 1008.4 |
| 20260506021703 | 66 | 237 | 1.0 | 1.0 | 0.00 | 0.02 | 0.02 | 75 | 1008.4 |
| 20260506021200 | 66 | 247 | 0.0 | 0.0 | 0.00 | 0.02 | 0.02 | 72 | 1008.5 |